User: anonymous   Login
Location: Unspecified
(0.0000°N, 0.0000°E)
Time: 11:48:07
(UTC+00:00)
Language:

XCUBESAT - Orbit

View from above orbital plane
View from above orbital plane
View from above satellite
View from above satellite

Ground track
Ground track

The orbit data is extracted from the following two-line orbital elements,

1 42707U 98067LQ  18169.01916095  .00023837  00000-0  18448-3 0  9997
2 42707  51.6325 350.2275 0001809 192.9969 167.0983 15.71743194 62050
Epoch (UTC): 18 June 2018 00:27:35
Eccentricity: 0.0001809
inclination: 51.6325°
perigee height: 353 km
apogee height: 355 km
right ascension of ascending node: 350.2275°
argument of perigee: 192.9969°
revolutions per day: 15.71743194
mean anomaly at epoch: 167.0983°
orbit number at epoch: 6205

The dashed part of the orbit path shows where the satellite is in the earth's shadow,  

DLR